#timestamp,LO_Frequency,Hit,Temp,Hum 
1477990815.8,286047027.2,N,0.0,0.0
1477990835.6,286047027.2,N,0.0,0.0
1477990855.4,286047027.0,N,0.0,0.0
1477990875.3,286047027.7,N,0.0,0.0
1477990895.1,286047025.8,N,0.0,0.0
1477990896.0,286047025.8,N,0.0,0.0
1477990915.8,286047025.4,N,0.0,0.0
1477990935.7,286047024.4,N,0.0,0.0
1477990955.5,286047026.2,N,0.0,0.0
1477990975.3,286047026.3,N,0.0,0.0
1477990995.2,286047025.3,N,0.0,0.0
1477991015.0,286047027.0,N,0.0,0.0
1477991015.9,286047027.0,N,0.0,0.0
1477991035.7,286047027.9,N,0.0,0.0
1477991055.6,286047028.1,N,0.0,0.0
1477991075.4,286047028.1,N,0.0,0.0
1477991095.3,286047027.3,N,0.0,0.0
1477991115.1,286047028.5,N,0.0,0.0
1477991116.0,286047028.5,N,0.0,0.0
1477991135.8,286047031.5,N,0.0,0.0
1477991155.7,286047027.1,N,0.0,0.0
1477991175.5,286047029.9,N,0.0,0.0
1477991195.3,286047028.5,N,0.0,0.0
1477991215.2,286047027.6,N,0.0,0.0
1477991235.0,286047027.5,N,0.0,0.0
1477991235.9,286047027.5,N,0.0,0.0
1477991255.7,286047025.5,N,0.0,0.0
1477991275.6,286047026.0,N,0.0,0.0
1477991295.4,286047026.3,N,0.0,0.0
1477991315.2,286047026.3,N,0.0,0.0
1477991335.1,286047025.5,N,0.0,0.0
1477991336.0,286047025.5,N,0.0,0.0
1477991355.8,286047027.9,N,0.0,0.0
1477991375.7,286047027.8,N,0.0,0.0
1477991395.5,286047030.0,N,0.0,0.0
1477991415.3,286047026.9,N,0.0,0.0
1477991435.2,286047029.7,N,0.0,0.0
1477991455.9,286047029.1,N,0.0,0.0
1477991475.7,286047027.7,N,0.0,0.0
1477991495.6,286047027.5,N,0.0,0.0
1477991515.4,286047029.5,N,0.0,0.0
1477991535.2,286047027.8,N,0.0,0.0
1477991555.1,286047027.4,N,0.0,0.0
1477991556.0,286047027.4,N,0.0,0.0
1477991575.8,286047029.2,N,0.0,0.0
1477991595.6,286047027.6,N,0.0,0.0
1477991615.5,286047025.6,N,0.0,0.0
1477991635.3,286047025.6,N,0.0,0.0
1477991655.2,286047028.2,N,0.0,0.0
1477991675.9,286047028.1,N,0.0,0.0
1477991695.7,286047025.6,N,0.0,0.0
1477991715.6,286047025.5,N,0.0,0.0
1477991735.4,286047026.5,N,0.0,0.0
1477991755.2,286047025.4,N,0.0,0.0
1477991775.1,286047026.3,N,0.0,0.0
1477991776.0,286047026.3,N,0.0,0.0
1477991795.8,286047026.6,N,0.0,0.0
1477991815.6,286047026.1,N,0.0,0.0
1477991835.5,286047026.6,N,0.0,0.0
1477991855.3,286047025.7,N,0.0,0.0
1477991875.1,286047025.4,N,0.0,0.0
1477991895.9,286047025.7,N,0.0,0.0
1477991915.7,286047026.8,N,0.0,0.0
1477991935.5,286047022.5,N,0.0,0.0
1477991955.4,286047022.2,N,0.0,0.0
1477991975.2,286047022.2,N,0.0,0.0
1477991995.1,286047026.1,N,0.0,0.0
1477991996.0,286047026.1,N,0.0,0.0
1477992015.8,286047026.2,N,0.0,0.0
1477992035.6,286047026.3,N,0.0,0.0
1477992055.5,286047026.7,N,0.0,0.0
1477992075.3,286047026.7,N,0.0,0.0
1477992095.1,286047025.0,N,0.0,0.0
1477992115.9,286047024.5,N,0.0,0.0
1477992135.7,286047024.9,N,0.0,0.0
1477992155.5,286047024.3,N,0.0,0.0
1477992175.4,286047022.6,N,0.0,0.0
1477992195.2,286047024.9,N,0.0,0.0
1477992215.0,286047028.2,N,0.0,0.0
1477992215.9,286047028.2,N,0.0,0.0
1477992235.8,286047027.6,N,0.0,0.0
1477992255.6,286047028.4,N,0.0,0.0
1477992275.5,286047026.1,N,0.0,0.0
1477992295.3,286047026.6,N,0.0,0.0
1477992315.1,286047024.3,N,0.0,0.0
1477992335.9,286047026.6,N,0.0,0.0
1477992355.7,286047025.1,N,0.0,0.0
1477992375.5,286047024.7,N,0.0,0.0
1477992395.4,286047022.6,N,0.0,0.0
1477992415.2,286047024.7,N,0.0,0.0
1477992435.0,286047024.9,N,0.0,0.0
1477992435.9,286047024.9,N,0.0,0.0
1477992455.8,286047022.6,N,0.0,0.0
1477992475.6,286047022.4,N,0.0,0.0
1477992495.4,286047022.6,N,0.0,0.0
1477992515.3,286047022.2,N,0.0,0.0
1477992535.1,286047022.2,N,0.0,0.0
1477992555.8,286047022.1,N,0.0,0.0
1477992575.7,286047023.4,N,0.0,0.0
1477992595.5,286047020.9,N,0.0,0.0
1477992615.4,286047022.9,N,0.0,0.0
1477992635.2,286047022.3,N,0.0,0.0
1477992655.0,286047019.1,N,0.0,0.0
1477992655.9,286047019.1,N,0.0,0.0
1477992675.8,286047023.1,N,0.0,0.0
1477992695.6,286047024.8,N,0.0,0.0
1477992715.4,286047023.4,N,0.0,0.0
1477992735.3,286047020.5,N,0.0,0.0
1477992755.1,286047023.4,N,0.0,0.0
1477992775.8,286047023.4,N,0.0,0.0
1477992795.7,286047024.3,N,0.0,0.0
1477992815.5,286047023.1,N,0.0,0.0
1477992835.3,286047022.4,N,0.0,0.0
1477992855.2,286047025.2,N,0.0,0.0
1477992875.0,286047022.6,N,0.0,0.0
1477992875.9,286047022.6,N,0.0,0.0
1477992895.8,286047022.4,N,0.0,0.0
1477992915.6,286047023.6,N,0.0,0.0
1477992935.4,286047021.2,N,0.0,0.0
1477992955.3,286047021.2,N,0.0,0.0
1477992975.1,286047022.0,N,0.0,0.0
1477992976.0,286047022.0,N,0.0,0.0
1477992995.8,286047023.6,N,0.0,0.0
1477993015.7,286047024.7,N,0.0,0.0
1477993035.5,286047023.6,N,0.0,0.0
1477993055.3,286047022.3,N,0.0,0.0
1477993075.2,286047019.6,N,0.0,0.0
1477993095.9,286047019.4,N,0.0,0.0
1477993115.7,286047021.8,N,0.0,0.0
1477993135.6,286047021.6,N,0.0,0.0
1477993155.4,286047019.3,N,0.0,0.0
1477993175.2,286047020.8,N,0.0,0.0
1477993195.1,286047019.0,N,0.0,0.0
1477993196.0,286047019.0,N,0.0,0.0
1477993215.8,286047019.5,N,0.0,0.0
1477993235.7,286047021.1,N,0.0,0.0
1477993255.5,286047021.3,N,0.0,0.0
1477993275.3,286047021.9,N,0.0,0.0
1477993295.2,286047019.6,N,0.0,0.0
1477993315.9,286047020.1,N,0.0,0.0
1477993335.7,286047020.0,N,0.0,0.0
1477993355.6,286047021.7,N,0.0,0.0
1477993375.4,286047020.5,N,0.0,0.0
1477993395.2,286047017.7,N,0.0,0.0
1477993415.1,286047020.2,N,0.0,0.0
1477993416.0,286047020.2,N,0.0,0.0
1477993435.8,286047020.4,N,0.0,0.0
1477993455.6,286047017.3,N,0.0,0.0
1477993475.5,286047020.4,N,0.0,0.0
1477993495.3,286047019.5,N,0.0,0.0
1477993515.1,286047019.3,N,0.0,0.0
1477993535.9,286047020.4,N,0.0,0.0
1477993555.7,286047018.9,N,0.0,0.0
1477993575.6,286047021.6,N,0.0,0.0
1477993595.4,286047021.1,N,0.0,0.0
1477993615.2,286047021.8,N,0.0,0.0
1477993635.1,286047022.5,N,0.0,0.0
1477993636.0,286047022.5,N,0.0,0.0
1477993655.8,286047023.1,N,0.0,0.0
1477993675.6,286047025.1,N,0.0,0.0
1477993695.5,286047022.9,N,0.0,0.0
1477993715.3,286047021.7,N,0.0,0.0
1477993735.1,286047018.9,N,0.0,0.0
1477993755.9,286047018.9,N,0.0,0.0
1477993775.7,286047021.9,N,0.0,0.0
1477993795.5,286047019.4,N,0.0,0.0
1477993815.4,286047021.8,N,0.0,0.0
1477993835.2,286047019.6,N,0.0,0.0
1477993855.1,286047017.4,N,0.0,0.0
1477993856.0,286047017.4,N,0.0,0.0
1477993875.8,286047019.9,N,0.0,0.0
1477993895.6,286047019.4,N,0.0,0.0
1477993915.5,286047021.9,N,0.0,0.0
1477993935.3,286047020.0,N,0.0,0.0
1477993955.1,286047017.5,N,0.0,0.0
1477993975.9,286047018.7,N,0.0,0.0
1477993995.7,286047017.6,N,0.0,0.0
1477994015.5,286047016.4,N,0.0,0.0
1477994035.4,286047020.2,N,0.0,0.0
1477994055.2,286047021.9,N,0.0,0.0
1477994075.0,286047019.8,N,0.0,0.0
1477994075.9,286047019.8,N,0.0,0.0
1477994095.8,286047017.3,N,0.0,0.0
1477994115.6,286047017.4,N,0.0,0.0
1477994135.5,286047018.3,N,0.0,0.0
1477994155.3,286047018.6,N,0.0,0.0
1477994175.1,286047018.6,N,0.0,0.0
1477994195.9,286047020.1,N,0.0,0.0
1477994215.7,286047018.8,N,0.0,0.0
1477994235.5,286047018.3,N,0.0,0.0
1477994255.4,286047018.4,N,0.0,0.0
1477994275.2,286047018.5,N,0.0,0.0
1477994295.0,286047017.9,N,0.0,0.0
1477994295.9,286047017.9,N,0.0,0.0
1477994315.8,286047016.6,N,0.0,0.0
1477994335.6,286047016.5,N,0.0,0.0
1477994355.4,286047016.6,N,0.0,0.0
1477994375.3,286047013.8,N,0.0,0.0
1477994395.1,286047020.6,N,0.0,0.0
